QPF
0.06 0.05 0.03 0.01 0.01 0.00 0.00 0.00 0.00 0.00 0.00 0.00 0.00 0.00 0.00 0.00 0.00 0.00 0.00 0.00 0.00 0.00 0.00 0.00 0.00 0.00 0.00 0.00 0.00 0.00 0.00 0.00 0.00 0.00 0.00 0.00 0.00 0.00
0.10 0.09 0.06 0.02 0.00 0.00 0.00 0.00 0.00 0.00 0.00 0.00 0.00 0.00 0.00 0.00 0.00 0.00 0.00 0.00 0.00 0.00 0.00 0.00 0.00 0.00 0.00 0.00 0.00 0.00 0.00 0.00 0.00 0.00 0.00 0.01 0.00 0.00
0.01 0.00 0.00 0.00 0.00 0.00 0.00 0.00 0.00 0.00 0.00 0.00 0.00 0.00 0.00 0.00 0.00 0.00 0.00 0.00 0.00 0.00 0.00 0.00 0.00 0.00 0.00 0.00 0.00 0.00 0.00 0.00 0.00 0.00 0.00 0.01 0.01 0.00
0.00 0.00 0.00 0.00 0.00 0.00 0.00 0.00 0.00 0.00 0.00 0.00 0.00 0.00 0.00 0.00 0.00 0.00 0.00 0.00 0.00 0.00 0.00 0.00 0.00 0.00 0.00 0.01 0.01 0.01 0.00 0.00 0.00 0.00 0.00 0.01 0.01 0.01
0.00 0.00 0.00 0.00 0.00 0.00 0.00 0.00 0.00 0.00 0.00 0.00 0.00 0.00 0.00 0.00 0.00 0.00 0.00 0.00 0.00 0.01 0.01 0.00 0.01 0.01 0.01 0.01 0.01 0.00 0.00 0.00 0.00 0.00 0.00 0.00 0.00 0.00
0.00 0.00 0.00 0.00 0.00 0.00 0.00 0.00 0.00 0.00 0.00 0.00 0.00 0.00 0.00 0.00 0.00 0.00 0.00 0.00 0.00 0.00 0.01 0.01 0.01 0.01 0.01 0.01 0.01 0.01 0.00 0.00 0.00 0.00 0.00 0.00 0.00 0.00
0.00 0.00 0.00 0.00 0.00 0.00 0.00 0.00 0.00 0.00 0.00 0.00 0.00 0.00 0.00 0.00 0.00 0.00 0.00 0.00 0.00 0.00 0.00 0.01 0.01 0.01 0.01 0.01 0.01 0.01 0.00 0.00 0.00 0.00 0.00 0.00 0.00 0.00
0.00 0.00 0.00 0.00 0.00 0.00 0.00 0.00 0.00 0.00 0.00 0.00 0.00 0.00 0.00 0.00 0.00 0.00 0.00 0.00 0.00 0.00 0.00 0.00 0.00 0.01 0.01 0.01 0.03 0.02 0.01 0.00 0.00 0.00 0.00 0.00 0.00 0.00
0.00 0.00 0.00 0.00 0.00 0.00 0.00 0.00 0.00 0.00 0.00 0.00 0.00 0.00 0.00 0.00 0.00 0.00 0.00 0.00 0.00 0.00 0.00 0.01 0.02 0.02 0.02 0.01 0.01 0.00 0.00 0.00 0.00 0.00 0.00 0.00 0.00 0.00
0.00 0.00 0.00 0.00 0.00 0.00 0.00 0.00 0.00 0.00 0.00 0.00 0.00 0.00 0.00 0.00 0.00 0.00 0.00 0.00 0.00 0.00 0.00 0.01 0.00 0.00 0.00 0.01 0.02 0.01 0.00 0.00 0.00 0.00 0.00 0.00 0.00 0.00
0.00 0.00 0.00 0.00 0.00 0.00 0.00 0.00 0.00 0.00 0.00 0.00 0.00 0.00 0.00 0.00 0.00 0.00 0.00 0.00 0.00 0.00 0.00 0.01 0.01 0.02 0.02 0.01 0.00 0.00 0.00 0.00 0.00 0.00 0.00 0.00 0.00 0.00
0.00 0.00 0.00 0.00 0.00 0.00 0.00 0.00 0.00 0.00 0.00 0.00 0.00 0.00 0.00 0.00 0.00 0.00 0.00 0.00 0.00 0.00 0.00 0.00 0.00 0.01 0.00 0.00 0.00 0.00 0.00 0.00 0.00 0.00 0.00 0.00 0.00 0.00
0.00 0.00 0.00 0.00 0.00 0.00 0.00 0.00 0.00 0.00 0.00 0.00 0.00 0.00 0.00 0.00 0.00 0.00 0.00 0.00 0.00 0.00 0.00 0.00 0.00 0.00 0.00 0.00 0.00 0.00 0.00 0.00 0.00 0.00 0.00 0.00 0.00 0.00
0.00 0.00 0.00 0.00 0.00 0.00 0.00 0.00 0.00 0.00 0.00 0.00 0.00 0.00 0.00 0.00 0.00 0.00 0.00 0.00 0.00 0.00 0.00 0.00 0.00 0.00 0.00 0.00 0.00 0.00 0.00 0.00 0.00 0.00 0.00 0.00 0.00 0.00
0.00 0.00 0.00 0.00 0.00 0.00 0.00 0.00 0.00 0.00 0.00 0.00 0.00 0.00 0.00 0.00 0.00 0.00 0.00 0.00 0.00 0.00 0.00 0.00 0.00 0.00 0.00 0.00 0.00 0.00 0.00 0.00 0.00 0.00 0.00 0.00 0.00 0.00
0.00 0.00 0.00 0.00 0.00 0.00 0.00 0.00 0.00 0.00 0.00 0.00 0.00 0.00 0.00 0.00 0.00 0.00 0.00 0.00 0.00 0.00 0.00 0.00 0.00 0.00 0.00 0.00 0.00 0.00 0.00 0.00 0.00 0.00 0.00 0.00 0.00 0.00
0.00 0.00 0.00 0.00 0.00 0.00 0.00 0.00 0.00 0.00 0.00 0.00 0.00 0.00 0.00 0.00 0.00 0.00 0.00 0.00 0.00 0.00 0.00 0.00 0.00 0.00 0.00 0.00 0.00 0.00 0.00 0.00 0.00 0.00 0.00 0.00 0.00 0.00
0.00 0.00 0.00 0.00 0.00 0.00 0.00 0.00 0.00 0.00 0.00 0.00 0.00 0.00 0.00 0.00 0.00 0.00 0.00 0.00 0.00 0.00 0.00 0.00 0.00 0.00 0.00 0.00 0.00 0.00 0.00 0.00 0.00 0.00 0.00 0.00 0.00 0.00
0.00 0.00 0.00 0.00 0.00 0.00 0.00 0.00 0.00 0.00 0.00 0.00 0.00 0.00 0.00 0.00 0.00 0.00 0.00 0.00 0.00 0.00 0.00 0.00 0.00 0.00 0.00 0.00 0.00 0.00 0.00 0.00 0.00 0.00 0.00 0.00 0.00 0.00
0.00 0.00 0.00 0.00 0.00 0.00 0.00 0.00 0.00 0.00 0.00 0.00 0.00 0.00 0.00 0.00 0.00 0.00 0.00 0.00 0.00 0.00 0.00 0.00 0.00 0.00 0.00 0.00 0.00 0.00 0.00 0.00 0.00 0.00 0.00 0.00 0.00 0.00
0.00 0.00 0.00 0.00 0.00 0.00 0.00 0.00 0.00 0.00 0.00 0.00 0.01 0.01 0.01 0.01 0.00 0.00 0.00 0.00 0.00 0.00 0.00 0.00 0.00 0.00 0.00 0.00 0.00 0.00 0.00 0.00 0.00 0.00 0.00 0.00 0.00 0.00
0.00 0.00 0.00 0.00 0.00 0.00 0.00 0.00 0.00 0.01 0.00 0.00 0.01 0.01 0.01 0.02 0.01 0.00 0.00 0.00 0.00 0.00 0.00 0.00 0.00 0.00 0.00 0.00 0.00 0.00 0.00 0.00 0.00 0.00 0.00 0.00 0.00 0.00
0.00 0.00 0.00 0.00 0.01 0.01 0.01 0.01 0.01 0.01 0.01 0.01 0.01 0.01 0.01 0.02 0.01 0.01 0.01 0.00 0.00 0.00 0.00 0.00 0.00 0.00 0.00 0.00 0.00 0.00 0.00 0.00 0.00 0.00 0.00 0.00 0.00 0.00
MSLP
1019.77 1020.29 1020.68 1021.17 1021.46 1021.39 1021.43 1021.77 1021.84 1021.75 1021.45 1021.50 1021.60 1021.81 1021.96 1022.23 1022.29 1022.46 1022.33 1022.36 1022.37 1022.29 1021.76 1021.66 1021.84 1021.77 1021.62 1021.63 1021.65 1021.81 1021.75 1021.91 1021.99 1022.24 1022.34 1022.44 1022.73 1022.96
1019.48 1020.11 1020.67 1020.81 1021.52 1021.98 1022.04 1022.15 1022.06 1022.17 1021.82 1021.65 1021.74 1021.85 1021.78 1021.98 1022.04 1022.35 1022.34 1022.43 1022.49 1022.48 1022.32 1022.24 1022.04 1021.97 1021.75 1021.99 1021.89 1021.96 1022.30 1022.42 1022.57 1022.73 1022.88 1022.90 1023.20 1023.41
1019.42 1020.00 1020.54 1021.16 1021.56 1022.11 1022.29 1022.21 1022.05 1022.20 1022.13 1021.83 1021.90 1021.85 1022.05 1022.13 1021.96 1022.11 1022.37 1022.45 1022.52 1022.57 1022.41 1022.36 1022.29 1022.22 1022.01 1021.95 1022.35 1022.19 1022.21 1022.40 1022.75 1023.03 1023.24 1023.32 1023.66 1023.81
1019.57 1020.43 1020.60 1021.20 1021.69 1021.89 1022.14 1022.08 1022.21 1022.28 1022.40 1022.13 1021.91 1021.59 1021.81 1021.81 1022.19 1022.37 1022.24 1022.49 1022.68 1022.78 1022.64 1022.55 1022.79 1022.68 1022.57 1022.43 1022.36 1022.29 1022.48 1022.43 1022.80 1023.25 1023.52 1023.74 1023.96 1024.31
1019.26 1020.03 1020.64 1021.24 1021.57 1021.94 1022.05 1022.20 1022.45 1022.53 1022.63 1022.69 1022.67 1022.42 1022.56 1022.45 1022.54 1022.55 1022.42 1022.57 1022.81 1022.75 1022.62 1022.43 1022.58 1022.82 1022.76 1022.83 1022.74 1022.95 1022.89 1023.11 1023.14 1023.46 1023.73 1023.87 1024.24 1024.69
1019.35 1020.09 1020.76 1021.14 1021.59 1021.84 1022.11 1022.34 1022.58 1022.78 1022.71 1022.89 1023.05 1023.31 1023.16 1023.30 1023.37 1023.41 1022.98 1023.02 1023.11 1023.02 1022.86 1022.95 1022.66 1022.56 1022.65 1022.77 1023.16 1023.07 1023.11 1023.20 1023.45 1023.74 1023.92 1024.24 1024.48 1024.86
1019.86 1020.28 1020.85 1021.29 1021.69 1022.05 1022.31 1022.62 1022.91 1022.92 1023.04 1023.33 1023.54 1023.49 1023.57 1023.49 1023.73 1023.87 1023.99 1023.89 1023.22 1023.22 1023.12 1023.10 1023.13 1022.98 1022.83 1022.80 1023.27 1023.37 1023.42 1023.51 1023.69 1023.99 1024.15 1024.55 1024.82 1024.95
1020.09 1020.53 1020.84 1021.48 1021.91 1022.34 1022.70 1022.94 1023.12 1023.20 1023.46 1023.80 1023.74 1023.45 1023.46 1023.67 1023.83 1024.27 1024.57 1024.23 1024.00 1023.58 1023.51 1023.53 1023.70 1023.39 1023.31 1023.33 1023.33 1023.56 1023.65 1023.68 1023.94 1024.18 1024.38 1024.61 1024.89 1025.07
1019.95 1020.64 1020.92 1021.50 1021.60 1022.04 1022.65 1022.94 1023.11 1023.47 1023.74 1023.86 1023.65 1023.48 1023.51 1023.36 1024.11 1024.12 1024.37 1024.42 1024.40 1024.32 1024.01 1023.88 1023.97 1023.55 1023.48 1023.38 1023.56 1023.68 1023.69 1023.86 1024.05 1024.26 1024.37 1024.65 1024.91 1025.08
1019.89 1020.41 1020.59 1021.25 1021.49 1021.88 1022.39 1022.84 1023.11 1023.45 1023.43 1023.45 1023.59 1023.70 1023.70 1023.68 1023.76 1023.97 1024.01 1024.10 1024.29 1024.28 1024.13 1024.36 1024.13 1023.92 1024.07 1023.88 1023.87 1023.85 1023.79 1023.85 1023.96 1024.23 1024.40 1024.52 1024.81 1025.03
1019.66 1020.17 1020.47 1020.93 1021.48 1021.89 1022.18 1022.88 1023.05 1023.21 1023.53 1023.72 1024.07 1024.25 1024.48 1024.35 1024.01 1023.97 1024.15 1023.80 1023.83 1023.99 1024.30 1024.41 1024.08 1023.85 1024.01 1023.83 1023.69 1023.67 1023.78 1023.76 1023.78 1023.95 1024.28 1024.42 1024.61 1024.91
1019.97 1020.30 1020.85 1021.14 1021.47 1022.00 1022.15 1022.22 1022.69 1023.15 1023.36 1023.52 1024.11 1024.21 1024.07 1024.12 1023.93 1024.37 1024.32 1024.47 1024.30 1024.11 1023.98 1024.86 1024.47 1024.19 1024.08 1023.73 1023.61 1023.61 1023.77 1023.64 1023.58 1023.73 1024.05 1024.25 1024.41 1024.70
1019.87 1020.15 1020.61 1021.07 1021.51 1021.52 1021.72 1022.03 1022.40 1022.92 1023.62 1023.88 1023.69 1023.33 1023.81 1023.94 1024.11 1024.40 1023.97 1024.55 1024.35 1024.39 1023.90 1024.61 1024.56 1024.42 1024.33 1023.94 1023.74 1023.53 1023.49 1023.29 1023.53 1023.69 1023.84 1024.13 1024.35 1024.55
1019.63 1020.11 1020.57 1021.13 1021.33 1021.51 1022.07 1021.83 1022.42 1022.78 1023.18 1023.68 1023.37 1023.10 1023.21 1023.98 1024.24 1024.55 1024.21 1024.41 1024.61 1024.21 1024.13 1024.50 1024.71 1024.33 1024.25 1024.12 1024.02 1023.79 1023.71 1023.57 1023.67 1023.96 1024.04 1024.02 1024.03 1024.13
1019.84 1020.02 1020.53 1020.85 1021.17 1021.55 1021.71 1021.95 1022.05 1022.75 1023.24 1023.50 1023.23 1023.02 1023.10 1023.49 1024.24 1024.43 1024.34 1024.44 1024.72 1024.27 1024.28 1024.62 1024.81 1024.48 1024.34 1024.19 1023.96 1024.00 1023.91 1023.80 1023.90 1023.95 1023.98 1024.09 1024.04 1023.95
1019.68 1019.95 1020.39 1020.58 1020.81 1020.93 1021.31 1021.85 1022.29 1022.44 1023.02 1023.31 1023.11 1023.11 1022.71 1022.55 1023.85 1024.02 1024.04 1024.68 1024.58 1023.83 1024.26 1024.63 1024.65 1024.69 1024.33 1024.05 1023.75 1023.84 1023.66 1023.78 1023.73 1023.93 1024.01 1023.96 1024.08 1024.08
1019.28 1019.66 1020.00 1020.45 1021.10 1021.27 1021.19 1021.75 1022.25 1022.20 1022.61 1023.00 1022.65 1023.10 1022.35 1022.71 1023.46 1023.56 1024.13 1024.38 1024.45 1023.85 1024.21 1024.18 1024.41 1024.34 1024.22 1024.15 1023.80 1023.58 1023.52 1023.47 1023.50 1023.71 1024.00 1024.03 1024.06 1024.00
1018.68 1019.34 1019.76 1020.25 1020.97 1021.31 1021.10 1021.39 1021.39 1021.86 1022.39 1022.27 1022.35 1022.59 1022.53 1022.86 1023.42 1023.37 1023.95 1024.35 1023.72 1023.78 1023.97 1023.81 1023.98 1024.23 1023.91 1023.14 1023.02 1023.07 1023.07 1023.18 1023.27 1023.37 1023.65 1023.88 1023.71 1023.55
1018.27 1018.78 1019.25 1020.04 1019.96 1020.70 1020.92 1020.91 1020.79 1021.54 1021.44 1021.67 1022.33 1022.17 1022.30 1022.54 1022.88 1022.98 1023.67 1023.66 1023.40 1023.49 1023.46 1023.63 1023.88 1023.81 1023.82 1023.17 1022.53 1022.60 1022.99 1022.89 1023.06 1023.23 1023.18 1023.26 1023.09 1022.86
1017.98 1018.54 1018.77 1019.23 1019.72 1020.27 1020.29 1020.40 1020.58 1020.64 1021.05 1021.50 1021.83 1021.90 1022.05 1022.26 1022.28 1022.68 1022.96 1022.88 1023.02 1023.00 1023.03 1023.27 1023.38 1023.35 1023.28 1023.12 1022.82 1022.41 1022.37 1022.75 1022.74 1022.75 1022.75 1022.75 1022.62 1022.50
1017.61 1018.16 1018.15 1018.74 1019.41 1019.64 1019.60 1019.84 1019.93 1020.16 1020.54 1020.97 1021.19 1021.45 1021.57 1021.53 1021.68 1022.05 1022.10 1022.22 1022.35 1022.42 1022.56 1022.51 1022.27 1022.32 1022.78 1022.96 1023.06 1022.39 1021.90 1021.91 1022.15 1022.31 1022.15 1022.38 1022.36 1022.19
1017.27 1017.58 1018.07 1018.62 1018.94 1019.12 1019.22 1019.40 1019.36 1019.61 1020.07 1020.31 1020.56 1020.83 1020.87 1020.97 1021.13 1021.29 1021.55 1021.71 1021.65 1021.70 1021.74 1021.71 1021.86 1022.10 1022.50 1022.47 1022.19 1021.98 1021.60 1021.53 1021.56 1021.69 1021.77 1021.66 1021.69 1021.50
1017.00 1017.49 1017.99 1018.30 1018.56 1018.69 1018.76 1018.73 1018.86 1019.20 1019.49 1019.73 1020.03 1020.21 1020.35 1020.46 1020.55 1020.75 1020.97 1021.01 1021.13 1021.20 1021.27 1021.41 1021.53 1021.75 1021.82 1021.72 1021.63 1021.48 1021.42 1021.32 1021.29 1021.31 1021.14 1021.06 1020.99 1020.84
Thickness
5626 5623 5622 5620 5620 5621 5621 5617 5615 5615 5619 5617 5616 5613 5610 5606 5600 5593 5589 5583 5581 5578 5578 5575 5568 5565 5562 5558 5555 5551 5549 5545 5542 5538 5536 5533 5529 5526
5621 5620 5614 5613 5612 5609 5608 5606 5606 5604 5607 5607 5606 5605 5602 5596 5592 5585 5579 5575 5570 5566 5565 5561 5558 5554 5552 5546 5543 5539 5535 5531 5528 5526 5523 5521 5518 5514
5613 5612 5609 5606 5604 5600 5597 5598 5599 5597 5597 5600 5598 5595 5591 5585 5582 5576 5570 5566 5562 5558 5556 5552 5548 5544 5541 5537 5530 5529 5525 5521 5516 5513 5511 5510 5506 5505
5604 5600 5600 5598 5595 5594 5591 5591 5589 5590 5588 5589 5590 5589 5583 5577 5571 5566 5565 5561 5556 5550 5545 5540 5533 5529 5525 5522 5520 5517 5513 5511 5506 5501 5499 5497 5495 5493
5603 5599 5594 5591 5589 5585 5583 5581 5579 5577 5576 5574 5571 5571 5565 5564 5560 5558 5558 5553 5548 5544 5537 5533 5525 5517 5513 5508 5504 5500 5500 5496 5494 5490 5487 5487 5485 5482
5596 5590 5585 5584 5581 5577 5574 5572 5569 5566 5566 5562 5558 5551 5551 5547 5544 5542 5544 5540 5535 5529 5526 5519 5514 5509 5504 5499 5493 5490 5488 5485 5481 5478 5477 5476 5475 5473
5580 5580 5577 5574 5570 5566 5564 5561 5558 5557 5554 5548 5543 5542 5538 5538 5533 5529 5524 5522 5524 5518 5514 5507 5502 5497 5493 5489 5482 5479 5476 5473 5471 5467 5466 5464 5464 5464
5571 5569 5568 5562 5557 5554 5550 5547 5545 5543 5540 5534 5532 5533 5531 5528 5522 5515 5509 5511 5509 5506 5502 5495 5488 5485 5481 5476 5472 5469 5466 5464 5460 5457 5455 5454 5454 5455
5563 5559 5557 5552 5548 5545 5540 5536 5533 5528 5524 5522 5523 5523 5520 5520 5511 5508 5502 5499 5495 5491 5488 5485 5477 5476 5470 5466 5461 5459 5458 5454 5451 5448 5446 5445 5445 5446
5552 5549 5548 5541 5538 5534 5529 5524 5521 5516 5513 5513 5512 5510 5508 5507 5505 5499 5496 5491 5485 5480 5477 5472 5466 5463 5458 5456 5453 5450 5448 5444 5443 5440 5438 5438 5438 5438
5541 5538 5536 5532 5525 5520 5518 5511 5509 5507 5503 5501 5496 5494 5490 5489 5490 5487 5483 5484 5481 5474 5467 5461 5457 5454 5449 5448 5447 5443 5440 5438 5436 5434 5432 5431 5431 5431
5526 5523 5517 5516 5512 5506 5505 5505 5500 5496 5493 5491 5483 5482 5480 5478 5480 5472 5469 5465 5466 5464 5457 5446 5444 5441 5441 5440 5439 5436 5434 5431 5429 5429 5426 5425 5426 5427
5512 5509 5505 5502 5497 5498 5496 5494 5491 5486 5479 5475 5477 5478 5472 5469 5466 5461 5462 5453 5453 5450 5446 5436 5433 5430 5429 5430 5429 5429 5428 5427 5425 5422 5421 5419 5419 5420
5499 5494 5492 5487 5486 5485 5480 5481 5478 5474 5472 5466 5469 5469 5467 5458 5453 5448 5449 5444 5440 5439 5435 5427 5422 5422 5421 5421 5419 5419 5418 5418 5417 5415 5414 5413 5413 5415
5481 5482 5479 5477 5475 5471 5470 5469 5468 5462 5460 5456 5457 5458 5456 5452 5443 5440 5437 5433 5428 5429 5425 5417 5413 5412 5412 5411 5410 5408 5408 5410 5409 5408 5407 5407 5406 5409
5470 5469 5466 5467 5467 5468 5464 5459 5455 5453 5448 5446 5447 5445 5449 5450 5436 5433 5429 5423 5418 5421 5415 5408 5406 5403 5402 5404 5404 5402 5402 5401 5402 5400 5400 5401 5400 5401
5460 5458 5456 5455 5453 5451 5452 5448 5443 5443 5439 5435 5437 5433 5441 5436 5427 5425 5418 5413 5410 5412 5405 5402 5397 5396 5395 5395 5396 5397 5396 5396 5395 5394 5392 5393 5395 5396
5451 5448 5446 5445 5440 5440 5441 5438 5437 5434 5428 5429 5428 5426 5427 5423 5417 5414 5408 5403 5406 5402 5397 5395 5392 5387 5389 5394 5393 5392 5392 5389 5388 5389 5387 5386 5389 5392
5441 5441 5438 5433 5435 5430 5427 5428 5429 5424 5426 5422 5416 5416 5415 5412 5409 5407 5399 5398 5398 5394 5391 5386 5382 5380 5379 5384 5387 5385 5382 5383 5383 5382 5383 5383 5385 5389
5431 5428 5426 5426 5422 5418 5418 5419 5418 5418 5415 5410 5407 5406 5404 5402 5401 5396 5393 5391 5388 5385 5382 5378 5376 5374 5374 5376 5376 5377 5377 5375 5375 5376 5377 5378 5380 5381
5420 5418 5418 5414 5410 5409 5410 5410 5410 5409 5406 5402 5399 5396 5395 5396 5393 5388 5387 5385 5381 5376 5373 5372 5372 5369 5366 5364 5363 5367 5371 5370 5369 5368 5370 5369 5370 5373
5409 5409 5405 5401 5400 5399 5399 5399 5402 5400 5397 5395 5392 5389 5388 5386 5383 5380 5375 5371 5370 5367 5365 5363 5362 5360 5355 5356 5358 5360 5362 5363 5363 5361 5361 5362 5363 5364
5396 5394 5391 5389 5387 5388 5390 5392 5393 5390 5388 5387 5384 5381 5378 5375 5372 5368 5363 5360 5358 5355 5354 5352 5350 5348 5348 5348 5349 5351 5351 5353 5353 5353 5355 5355 5356 5359